LNI17HJ VOMM-OEMA

Flight info

Callsign LNI17HJ
Flight time 5h 0m
Altitude 34000
Route GULAM2B GULAM P574 BISET P751 LEGEN N563 REXOD L883 GADMA/N0494F360 L883 UMILA N569 TOKRA/N0483F280 Y511 ELONU
Aircraft B744/H-SDE3FGHIM1M2RWXY/LB1

Departure

Time 2026-04-24 14:20
Airport Chennai International Airport (VOMM)

Arrival

Time 2026-04-24 19:20
Airport Prince Mohammad Bin Abdulaziz Airport (OEMA)
Time Latitude Longitude Altitude Speed Heading
2026-04-24 13:51 12.98365 80.15926 61 ft 0 kts 335°
2026-04-24 14:06 12.98364 80.15926 62 ft 1 kts 335°
2026-04-24 14:06 12.98322 80.15945 62 ft 2 kts 335°
2026-04-24 14:07 12.98308 80.15950 62 ft 2 kts
2026-04-24 14:07 12.98293 80.15945 62 ft 2 kts 38°
2026-04-24 14:07 12.98284 80.15933 62 ft 1 kts 66°
2026-04-24 14:07 12.98281 80.15929 62 ft 0 kts 72°
2026-04-24 14:08 12.98279 80.15925 62 ft 0 kts 70°
2026-04-24 14:10 12.98281 80.15929 61 ft 2 kts 70°
2026-04-24 14:10 12.98302 80.15989 61 ft 15 kts 70°
2026-04-24 14:11 12.98337 80.16090 61 ft 12 kts 70°
2026-04-24 14:11 12.98370 80.16149 61 ft 7 kts 38°
2026-04-24 14:11 12.98489 80.16142 61 ft 11 kts 15°
2026-04-24 14:12 12.98548 80.16202 61 ft 12 kts 55°
2026-04-24 14:12 12.98587 80.16290 61 ft 14 kts 70°
2026-04-24 14:12 12.98628 80.16401 61 ft 18 kts 68°
2026-04-24 14:12 12.98680 80.16535 61 ft 21 kts 69°
2026-04-24 14:13 12.98733 80.16676 61 ft 19 kts 69°
2026-04-24 14:13 12.98777 80.16792 61 ft 15 kts 69°
2026-04-24 14:13 12.98810 80.16882 61 ft 11 kts 69°
2026-04-24 14:13 12.98836 80.16949 62 ft 8 kts 69°
2026-04-24 14:14 12.98858 80.17009 61 ft 10 kts 69°
2026-04-24 14:14 12.98894 80.17107 61 ft 18 kts 69°
2026-04-24 14:14 12.99023 80.17403 61 ft 23 kts 70°
2026-04-24 14:15 12.99078 80.17555 61 ft 21 kts 69°
2026-04-24 14:15 12.99132 80.17680 62 ft 15 kts 47°
2026-04-24 14:15 12.99208 80.17739 62 ft 12 kts 54°
2026-04-24 14:15 12.99242 80.17817 61 ft 11 kts 69°
2026-04-24 14:16 12.99273 80.17896 62 ft 11 kts 70°
2026-04-24 14:16 12.99305 80.17983 61 ft 14 kts 68°
2026-04-24 14:16 12.99348 80.18094 61 ft 18 kts 70°
2026-04-24 14:17 12.99433 80.18325 61 ft 15 kts 44°
2026-04-24 14:17 12.99515 80.18398 62 ft 14 kts 18°
2026-04-24 14:17 12.99551 80.18315 62 ft 0 kts 250°
2026-04-24 14:18 12.99550 80.18313 62 ft 2 kts 250°
2026-04-24 14:18 12.99531 80.18262 62 ft 14 kts 248°
2026-04-24 14:18 12.99471 80.18104 61 ft 34 kts 249°
2026-04-24 14:19 12.99400 80.17917 62 ft 50 kts 248°
2026-04-24 14:19 12.99100 80.17121 62 ft 136 kts 248°
2026-04-24 14:19 12.98678 80.16010 162 ft 190 kts 246°
2026-04-24 14:19 12.98256 80.14867 642 ft 203 kts 249°
2026-04-24 14:20 12.97851 80.13577 972 ft 210 kts 249°
2026-04-24 14:20 12.97449 80.12103 1386 ft 224 kts 262°
2026-04-24 14:20 12.97629 80.10441 1801 ft 244 kts 287°
2026-04-24 14:20 12.98323 80.08788 2085 ft 258 kts 294°
2026-04-24 14:21 12.99074 80.07104 2481 ft 261 kts 292°
2026-04-24 14:21 12.99830 80.05373 2889 ft 265 kts 291°
2026-04-24 14:21 13.00455 80.03580 3290 ft 266 kts 287°
2026-04-24 14:21 13.01075 80.01750 3727 ft 284 kts 288°
2026-04-24 14:22 13.01705 79.99748 4250 ft 299 kts 285°
2026-04-24 14:22 13.02060 79.98515 4545 ft 301 kts 286°
2026-04-24 14:22 13.03243 79.94644 5278 ft 314 kts 289°
2026-04-24 14:23 13.03923 79.92442 5730 ft 324 kts 287°
2026-04-24 14:23 13.04583 79.90192 6183 ft 323 kts 288°
2026-04-24 14:23 13.05251 79.87982 6589 ft 322 kts 288°
2026-04-24 14:23 13.05911 79.85787 6968 ft 325 kts 288°
2026-04-24 14:24 13.06583 79.83554 7352 ft 328 kts 288°
2026-04-24 14:24 13.07261 79.81299 7737 ft 328 kts 288°
2026-04-24 14:24 13.07875 79.79049 8100 ft 329 kts 285°
2026-04-24 14:24 13.08427 79.76755 8476 ft 330 kts 285°
2026-04-24 14:25 13.09012 79.74465 8856 ft 331 kts 285°
2026-04-24 14:25 13.09578 79.72165 9233 ft 333 kts 285°
2026-04-24 14:25 13.10158 79.69841 9613 ft 334 kts 285°
2026-04-24 14:25 13.10677 79.67738 9956 ft 335 kts 285°
2026-04-24 14:26 13.11237 79.65437 10324 ft 337 kts 286°
2026-04-24 14:26 13.11835 79.63078 10712 ft 339 kts 286°
2026-04-24 14:26 13.12415 79.60749 11090 ft 340 kts 286°
2026-04-24 14:26 13.13000 79.58380 11468 ft 341 kts 286°
2026-04-24 14:27 13.13587 79.55997 11844 ft 342 kts 286°
2026-04-24 14:27 13.14166 79.53653 12216 ft 344 kts 286°
2026-04-24 14:27 13.14766 79.51228 12600 ft 346 kts 286°
2026-04-24 14:27 13.15362 79.48816 12978 ft 348 kts 286°
2026-04-24 14:28 13.15957 79.46404 13354 ft 350 kts 286°
2026-04-24 14:28 13.16558 79.43969 13731 ft 353 kts 286°
2026-04-24 14:28 13.17167 79.41505 14110 ft 355 kts 286°
2026-04-24 14:28 13.17775 79.39037 14487 ft 357 kts 286°
2026-04-24 14:29 13.18385 79.36561 14863 ft 359 kts 286°
2026-04-24 14:29 13.19110 79.34100 15208 ft 359 kts 295°
2026-04-24 14:29 13.20286 79.31922 15558 ft 359 kts 303°
2026-04-24 14:29 13.21389 79.30062 15891 ft 362 kts 302°
2026-04-24 14:30 13.22245 79.28577 16153 ft 364 kts 303°
2026-04-24 14:30 13.24031 79.25607 16679 ft 368 kts 303°
2026-04-24 14:30 13.25371 79.23336 17065 ft 369 kts 303°
2026-04-24 14:30 13.26717 79.21078 17438 ft 371 kts 303°
2026-04-24 14:31 13.28073 79.18791 17819 ft 373 kts 303°
2026-04-24 14:31 13.29416 79.16527 18194 ft 375 kts 303°
2026-04-24 14:31 13.30795 79.14206 18575 ft 377 kts 303°
2026-04-24 14:31 13.32151 79.11923 18946 ft 379 kts 303°
2026-04-24 14:32 13.33527 79.09600 19323 ft 381 kts 303°
2026-04-24 14:32 13.34918 79.07256 19703 ft 383 kts 303°
2026-04-24 14:32 13.36298 79.04930 20076 ft 385 kts 303°
2026-04-24 14:32 13.37707 79.02554 20453 ft 387 kts 303°
2026-04-24 14:33 13.39116 79.00176 20834 ft 389 kts 303°
2026-04-24 14:33 13.40509 78.97824 21206 ft 391 kts 303°
2026-04-24 14:33 13.41937 78.95414 21585 ft 393 kts 303°
2026-04-24 14:33 13.43361 78.93011 21958 ft 395 kts 303°
2026-04-24 14:34 13.44793 78.90589 22336 ft 398 kts 303°
2026-04-24 14:34 13.46250 78.88126 22717 ft 400 kts 303°
2026-04-24 14:34 13.47695 78.85686 23091 ft 403 kts 303°
2026-04-24 14:34 13.49159 78.83210 23466 ft 405 kts 303°
2026-04-24 14:35 13.50628 78.80726 23845 ft 407 kts 303°
2026-04-24 14:35 13.52117 78.78208 24226 ft 410 kts 303°
2026-04-24 14:35 13.53594 78.75709 24601 ft 412 kts 303°
2026-04-24 14:35 13.55083 78.73187 24976 ft 415 kts 303°
2026-04-24 14:36 13.56596 78.70626 25355 ft 417 kts 303°
2026-04-24 14:36 13.58110 78.68061 25730 ft 419 kts 303°
2026-04-24 14:36 13.59621 78.65502 26107 ft 422 kts 303°
2026-04-24 14:36 13.61164 78.62888 26488 ft 424 kts 303°
2026-04-24 14:37 13.62684 78.60310 26861 ft 427 kts 303°
2026-04-24 14:37 13.64245 78.57664 27241 ft 429 kts 303°
2026-04-24 14:37 13.65790 78.55044 27614 ft 432 kts 303°
2026-04-24 14:37 13.67337 78.52419 27986 ft 434 kts 303°
2026-04-24 14:38 13.68909 78.49751 28367 ft 437 kts 303°
2026-04-24 14:38 13.70469 78.47103 28741 ft 439 kts 303°
2026-04-24 14:38 13.72065 78.44393 29120 ft 442 kts 303°
2026-04-24 14:38 13.73651 78.41698 29495 ft 444 kts 303°
2026-04-24 14:39 13.75268 78.38950 29876 ft 447 kts 303°
2026-04-24 14:39 13.76879 78.36212 30253 ft 450 kts 303°
2026-04-24 14:39 13.78438 78.33560 30614 ft 453 kts 303°
2026-04-24 14:39 13.80083 78.30763 30993 ft 456 kts 303°
2026-04-24 14:40 13.81728 78.27965 31369 ft 458 kts 303°
2026-04-24 14:40 13.83370 78.25170 31743 ft 461 kts 303°
2026-04-24 14:40 13.85044 78.22318 32120 ft 464 kts 303°
2026-04-24 14:40 13.86704 78.19491 32491 ft 466 kts 303°
2026-04-24 14:41 13.88401 78.16601 32872 ft 469 kts 303°
2026-04-24 14:41 13.90088 78.13724 33249 ft 472 kts 303°
2026-04-24 14:41 13.91798 78.10809 33626 ft 475 kts 303°
2026-04-24 14:41 13.93507 78.07894 33894 ft 479 kts 303°
2026-04-24 14:42 13.95241 78.04936 34030 ft 484 kts 303°
2026-04-24 14:42 13.98745 77.98953 34048 ft 489 kts 303°
2026-04-24 14:42 14.00503 77.95953 34060 ft 501 kts 302°
2026-04-24 14:43 14.02331 77.92830 34088 ft 516 kts 302°
2026-04-24 14:43 14.04218 77.89604 34114 ft 528 kts 302°
2026-04-24 14:43 14.06126 77.86341 34109 ft 532 kts 302°
2026-04-24 14:44 14.09946 77.79803 34026 ft 533 kts 302°
2026-04-24 14:44 14.13773 77.73248 34002 ft 534 kts 302°
2026-04-24 14:45 14.17613 77.66666 33995 ft 534 kts 302°
2026-04-24 14:45 14.21439 77.60105 33994 ft 534 kts 302°
2026-04-24 14:46 14.25263 77.53541 33993 ft 533 kts 302°
2026-04-24 14:46 14.29104 77.46942 33994 ft 534 kts 302°
2026-04-24 14:47 14.32900 77.40415 33993 ft 534 kts 302°
2026-04-24 14:47 14.36728 77.33828 33991 ft 534 kts 302°
2026-04-24 14:48 14.40534 77.27274 33991 ft 534 kts 302°
2026-04-24 14:48 14.44355 77.20688 33992 ft 533 kts 302°
2026-04-24 14:49 14.48166 77.14113 33993 ft 533 kts 302°
2026-04-24 14:49 14.51999 77.07497 33993 ft 533 kts 302°
2026-04-24 14:50 14.55783 77.00958 33993 ft 534 kts 302°
2026-04-24 14:50 14.59618 76.94326 33993 ft 535 kts 302°
2026-04-24 14:51 14.63423 76.87741 33993 ft 536 kts 302°
2026-04-24 14:51 14.67238 76.81134 33993 ft 537 kts 302°
2026-04-24 14:52 14.71051 76.74523 33993 ft 538 kts 302°
2026-04-24 14:52 14.74875 76.67886 33993 ft 538 kts 302°
2026-04-24 14:53 14.78684 76.61272 33993 ft 538 kts 302°
2026-04-24 14:53 14.82488 76.54662 33993 ft 538 kts 302°
2026-04-24 14:54 14.86296 76.48037 33993 ft 538 kts 302°
2026-04-24 14:54 14.90094 76.41425 33993 ft 537 kts 302°
2026-04-24 14:55 14.93273 76.35886 33992 ft 537 kts 302°
2026-04-24 14:55 14.97700 76.28167 33987 ft 536 kts 302°
2026-04-24 14:56 15.01489 76.21554 33960 ft 535 kts 302°
2026-04-24 14:56 15.05261 76.14966 33910 ft 535 kts 302°
2026-04-24 14:57 15.09049 76.08341 33858 ft 535 kts 302°
2026-04-24 14:57 15.12741 76.01882 33819 ft 534 kts 302°
2026-04-24 14:58 15.16323 75.95188 33806 ft 535 kts 300°
2026-04-24 14:58 15.19873 75.88457 33805 ft 535 kts 300°
2026-04-24 14:59 15.23434 75.81680 33805 ft 535 kts 300°
2026-04-24 14:59 15.26965 75.74946 33804 ft 535 kts 300°
2026-04-24 15:00 15.30515 75.68166 33804 ft 535 kts 300°
2026-04-24 15:00 15.34054 75.61402 33804 ft 535 kts 300°
2026-04-24 15:01 15.37580 75.54657 33805 ft 535 kts 300°
2026-04-24 15:01 15.41108 75.47899 33815 ft 535 kts 300°
2026-04-24 15:02 15.44634 75.41141 33821 ft 535 kts 300°
2026-04-24 15:02 15.48168 75.34360 33814 ft 535 kts 299°
2026-04-24 15:03 15.51702 75.27573 33804 ft 535 kts 299°
2026-04-24 15:03 15.55208 75.20834 33811 ft 535 kts 299°
2026-04-24 15:04 15.58727 75.14063 33835 ft 535 kts 299°
2026-04-24 15:04 15.62245 75.07291 33860 ft 534 kts 299°
2026-04-24 15:05 15.65750 75.00537 33868 ft 533 kts 299°
2026-04-24 15:05 15.69264 74.93757 33859 ft 531 kts 298°
2026-04-24 15:06 15.73492 74.85592 33845 ft 530 kts 298°
2026-04-24 15:06 15.87337 74.58769 33933 ft 529 kts 298°
2026-04-24 15:07 16.00414 74.31413 33895 ft 530 kts 297°
2026-04-24 15:07 16.13574 74.04107 33885 ft 530 kts 296°
2026-04-24 15:08 16.24589 73.81640 33842 ft 530 kts 296°
2026-04-24 15:08 16.25295 73.80117 33846 ft 531 kts 296°
2026-04-24 15:09 16.28576 73.73278 33891 ft 530 kts 296°
2026-04-24 15:09 16.31864 73.66429 33931 ft 531 kts 297°
2026-04-24 15:10 16.35160 73.59568 33938 ft 531 kts 297°
2026-04-24 15:10 16.38496 73.52767 33939 ft 531 kts 298°
2026-04-24 15:11 16.41895 73.45901 33939 ft 531 kts 298°
2026-04-24 15:11 16.45266 73.39101 33939 ft 531 kts 298°
2026-04-24 15:12 16.48649 73.32277 33937 ft 531 kts 297°
2026-04-24 15:12 16.53703 73.22063 33937 ft 531 kts 297°
2026-04-24 15:13 16.57078 73.15233 33936 ft 531 kts 297°
2026-04-24 15:13 16.60434 73.08334 33938 ft 535 kts 296°
2026-04-24 15:14 16.63731 73.01422 33940 ft 537 kts 297°
2026-04-24 15:14 16.67056 72.94434 33939 ft 539 kts 297°
2026-04-24 15:15 16.70370 72.87461 33939 ft 539 kts 297°
2026-04-24 15:15 16.73702 72.80444 33939 ft 539 kts 297°
2026-04-24 15:16 16.77014 72.73460 33939 ft 539 kts 297°
2026-04-24 15:16 16.80326 72.66471 33939 ft 539 kts 297°
2026-04-24 15:17 16.83629 72.59490 33939 ft 539 kts 297°
2026-04-24 15:17 16.86928 72.52510 33939 ft 539 kts 297°
2026-04-24 15:18 16.90247 72.45481 33939 ft 539 kts 297°
2026-04-24 15:18 16.93538 72.38504 33938 ft 539 kts 297°
2026-04-24 15:19 16.96857 72.31461 33934 ft 539 kts 297°
2026-04-24 15:19 17.00149 72.24473 33930 ft 538 kts 296°
2026-04-24 15:20 17.03429 72.17499 33906 ft 537 kts 296°
2026-04-24 15:20 17.06726 72.10480 33874 ft 536 kts 296°
2026-04-24 15:21 17.09999 72.03560 33850 ft 534 kts 296°
2026-04-24 15:21 17.13281 71.96742 33835 ft 532 kts 296°
2026-04-24 15:22 17.16598 71.89852 33831 ft 532 kts 296°
2026-04-24 15:23 17.21571 71.79503 33832 ft 532 kts 296°
2026-04-24 15:23 17.26545 71.69139 33831 ft 532 kts 296°
2026-04-24 15:25 17.34269 71.53011 33831 ft 532 kts 296°
2026-04-24 15:26 17.43063 71.34602 33831 ft 532 kts 296°
2026-04-24 15:27 17.52964 71.13811 33831 ft 532 kts 296°
2026-04-24 15:29 17.62817 70.93051 33831 ft 532 kts 296°
2026-04-24 15:31 17.74257 70.68864 33831 ft 530 kts 296°
2026-04-24 15:33 17.87284 70.41184 33831 ft 530 kts 296°
2026-04-24 15:34 17.95235 70.24225 33831 ft 530 kts 296°
2026-04-24 15:35 18.03348 70.06863 33831 ft 530 kts 296°
2026-04-24 15:36 18.06576 69.99941 33831 ft 530 kts 296°
2026-04-24 15:36 18.11433 69.89514 33830 ft 530 kts 296°
2026-04-24 15:37 18.14657 69.82581 33831 ft 530 kts 296°
2026-04-24 15:37 18.17907 69.75586 33831 ft 530 kts 296°
2026-04-24 15:38 18.21122 69.68659 33831 ft 530 kts 296°
2026-04-24 15:38 18.24350 69.61694 33831 ft 530 kts 296°
2026-04-24 15:39 18.27577 69.54723 33832 ft 530 kts 296°
2026-04-24 15:39 18.30781 69.47796 33831 ft 530 kts 296°
2026-04-24 15:40 18.34005 69.40817 33831 ft 530 kts 296°
2026-04-24 15:40 18.36958 69.33714 33791 ft 531 kts 286°
2026-04-24 15:41 18.37622 69.29928 33797 ft 531 kts 275°
2026-04-24 15:41 18.37576 69.26038 33813 ft 530 kts 263°
2026-04-24 15:41 18.36264 69.18422 33865 ft 532 kts 259°
2026-04-24 15:42 18.34792 69.10837 33843 ft 531 kts 258°
2026-04-24 15:42 18.33261 69.03268 33834 ft 532 kts 257°
2026-04-24 15:43 18.31696 68.95679 33832 ft 532 kts 257°
2026-04-24 15:43 18.30110 68.88075 33831 ft 532 kts 257°
2026-04-24 15:44 18.28522 68.80504 33831 ft 532 kts 257°
2026-04-24 15:44 18.26928 68.72931 33831 ft 532 kts 257°
2026-04-24 15:45 18.25332 68.65371 33831 ft 532 kts 257°
2026-04-24 15:45 18.23727 68.57787 33831 ft 532 kts 257°
2026-04-24 15:46 18.22118 68.50200 33831 ft 532 kts 257°
2026-04-24 15:46 18.20510 68.42632 33831 ft 532 kts 257°
2026-04-24 15:47 18.18897 68.35062 33832 ft 532 kts 257°
2026-04-24 15:47 18.17279 68.27483 33829 ft 532 kts 257°
2026-04-24 15:48 18.15667 68.19946 33831 ft 532 kts 257°
2026-04-24 15:48 18.14042 68.12360 33830 ft 531 kts 257°
2026-04-24 15:49 18.13478 68.04705 33794 ft 530 kts 276°
2026-04-24 15:49 18.14243 68.00928 33808 ft 529 kts 288°
2026-04-24 15:49 18.15682 67.97376 33824 ft 528 kts 298°
2026-04-24 15:50 18.19011 67.90497 33863 ft 530 kts 296°
2026-04-24 15:50 18.22255 67.83597 33844 ft 530 kts 296°
2026-04-24 15:51 18.25506 67.76676 33835 ft 530 kts 297°
2026-04-24 15:51 18.28782 67.69694 33832 ft 530 kts 297°
2026-04-24 15:52 18.32021 67.62788 33832 ft 530 kts 297°
2026-04-24 15:52 18.35284 67.55827 33831 ft 530 kts 297°
2026-04-24 15:53 18.38522 67.48915 33831 ft 530 kts 297°
2026-04-24 15:53 18.41788 67.41932 33831 ft 530 kts 297°
2026-04-24 15:54 18.45017 67.35021 33831 ft 530 kts 297°
2026-04-24 15:54 18.48269 67.28053 33830 ft 530 kts 296°
2026-04-24 15:55 18.51518 67.21085 33831 ft 530 kts 296°
2026-04-24 15:55 18.54764 67.14118 33830 ft 531 kts 296°
2026-04-24 15:56 18.58002 67.07159 33830 ft 533 kts 296°
2026-04-24 15:56 18.61266 67.00135 33832 ft 534 kts 296°
2026-04-24 15:57 18.64516 66.93133 33831 ft 534 kts 295°
2026-04-24 15:57 18.67757 66.86134 33831 ft 533 kts 295°
2026-04-24 15:58 18.71005 66.79116 33831 ft 533 kts 295°
2026-04-24 15:58 18.74254 66.72089 33831 ft 533 kts 295°
2026-04-24 15:59 18.77478 66.65108 33831 ft 533 kts 295°
2026-04-24 15:59 18.80712 66.58096 33830 ft 533 kts 295°
2026-04-24 16:00 18.83961 66.51044 33831 ft 533 kts 295°
2026-04-24 16:00 18.87193 66.44019 33830 ft 533 kts 295°
2026-04-24 16:01 18.90400 66.37044 33832 ft 532 kts 295°
2026-04-24 16:01 18.93615 66.30039 33831 ft 530 kts 295°
2026-04-24 16:02 18.96810 66.23074 33831 ft 528 kts 295°
2026-04-24 16:02 18.99999 66.16107 33831 ft 526 kts 295°
2026-04-24 16:03 19.03169 66.09175 33831 ft 525 kts 295°
2026-04-24 16:03 19.06329 66.02261 33831 ft 525 kts 295°
2026-04-24 16:04 19.09483 65.95351 33831 ft 524 kts 295°
2026-04-24 16:04 19.12658 65.88384 33831 ft 525 kts 295°
2026-04-24 16:05 19.17374 65.78023 33831 ft 524 kts 295°
2026-04-24 16:06 19.22100 65.67619 33831 ft 525 kts 295°
2026-04-24 16:07 19.26829 65.57192 33831 ft 525 kts 295°
2026-04-24 16:07 19.31566 65.46725 33831 ft 525 kts 295°
2026-04-24 16:08 19.36281 65.36288 33831 ft 525 kts 295°
2026-04-24 16:09 19.41002 65.25819 33831 ft 525 kts 295°
2026-04-24 16:09 19.44135 65.18861 33831 ft 525 kts 295°
2026-04-24 16:11 19.51937 65.01497 33854 ft 524 kts 295°
2026-04-24 16:11 19.55363 64.94703 33858 ft 524 kts 298°
2026-04-24 16:12 19.60572 64.84548 33859 ft 524 kts 298°
2026-04-24 16:13 19.65802 64.74375 33858 ft 524 kts 298°
2026-04-24 16:14 19.72731 64.60867 33857 ft 524 kts 298°
2026-04-24 16:14 19.77948 64.50678 33858 ft 524 kts 298°
2026-04-24 16:15 19.83132 64.40533 33857 ft 524 kts 298°
2026-04-24 16:16 19.88328 64.30346 33858 ft 524 kts 298°
2026-04-24 16:17 19.96970 64.13367 33858 ft 524 kts 298°
2026-04-24 16:18 20.03856 63.99804 33858 ft 524 kts 298°
2026-04-24 16:19 20.09031 63.89585 33857 ft 523 kts 298°
2026-04-24 16:20 20.14176 63.79411 33858 ft 523 kts 298°
2026-04-24 16:20 20.19335 63.69189 33858 ft 523 kts 298°
2026-04-24 16:21 20.24481 63.58976 33858 ft 523 kts 298°
2026-04-24 16:22 20.27908 63.52163 33858 ft 523 kts 298°
2026-04-24 16:22 20.33043 63.41940 33858 ft 523 kts 298°
2026-04-24 16:23 20.36459 63.35128 33858 ft 523 kts 298°
2026-04-24 16:24 20.41592 63.24878 33858 ft 524 kts 297°
2026-04-24 16:24 20.45003 63.18053 33858 ft 524 kts 298°
2026-04-24 16:25 20.48411 63.11232 33858 ft 524 kts 297°
2026-04-24 16:25 20.51816 63.04405 33858 ft 524 kts 297°
2026-04-24 16:26 20.56937 62.94101 33853 ft 524 kts 296°
2026-04-24 16:26 20.59048 62.86777 33857 ft 522 kts 281°
2026-04-24 16:27 20.59822 62.82956 33873 ft 522 kts 282°
2026-04-24 16:27 20.61364 62.75409 33865 ft 522 kts 282°
2026-04-24 16:28 20.62908 62.67870 33859 ft 521 kts 282°
2026-04-24 16:28 20.65231 62.56552 33857 ft 521 kts 282°
2026-04-24 16:29 20.66777 62.49007 33858 ft 521 kts 282°
2026-04-24 16:30 20.69881 62.33893 33857 ft 521 kts 282°
2026-04-24 16:30 20.71429 62.26359 33858 ft 521 kts 282°
2026-04-24 16:31 20.72980 62.18823 33858 ft 521 kts 282°
2026-04-24 16:31 20.74527 62.11298 33858 ft 521 kts 282°
2026-04-24 16:32 20.76084 62.03730 33857 ft 521 kts 282°
2026-04-24 16:32 20.77652 61.96120 33857 ft 521 kts 281°
2026-04-24 16:33 20.78969 61.88488 33857 ft 521 kts 280°
2026-04-24 16:33 20.80286 61.80856 33859 ft 521 kts 279°
2026-04-24 16:34 20.81602 61.73244 33858 ft 521 kts 279°
2026-04-24 16:34 20.82933 61.65548 33858 ft 521 kts 280°
2026-04-24 16:35 20.84250 61.57912 33858 ft 521 kts 280°
2026-04-24 16:35 20.85577 61.50219 33857 ft 522 kts 280°
2026-04-24 16:36 20.86903 61.42550 33857 ft 521 kts 280°
2026-04-24 16:36 20.88217 61.34944 33858 ft 521 kts 279°
2026-04-24 16:37 20.89537 61.27307 33858 ft 521 kts 279°
2026-04-24 16:37 20.90860 61.19669 33858 ft 521 kts 279°
2026-04-24 16:38 20.92168 61.12088 33859 ft 521 kts 279°
2026-04-24 16:38 20.93491 61.04409 33858 ft 521 kts 279°
2026-04-24 16:39 20.94792 60.96795 33858 ft 520 kts 280°
2026-04-24 16:39 20.96085 60.89204 33857 ft 520 kts 280°
2026-04-24 16:40 20.97395 60.81553 33858 ft 520 kts 280°
2026-04-24 16:40 20.98709 60.73925 33858 ft 519 kts 280°
2026-04-24 16:41 21.00028 60.66314 33857 ft 518 kts 280°
2026-04-24 16:41 21.01349 60.58727 33858 ft 517 kts 280°
2026-04-24 16:42 21.02669 60.51191 33857 ft 516 kts 280°
2026-04-24 16:42 21.03992 60.43673 33855 ft 515 kts 280°
2026-04-24 16:43 21.05314 60.36185 33857 ft 514 kts 280°
2026-04-24 16:43 21.06640 60.28680 33858 ft 513 kts 279°
2026-04-24 16:44 21.07974 60.21161 33858 ft 511 kts 280°
2026-04-24 16:44 21.09296 60.13688 33857 ft 510 kts 280°
2026-04-24 16:45 21.10603 60.06305 33857 ft 509 kts 280°
2026-04-24 16:45 21.11943 59.98728 33858 ft 508 kts 280°
2026-04-24 16:46 21.13256 59.91298 33856 ft 507 kts 280°
2026-04-24 16:46 21.14579 59.83821 33858 ft 507 kts 280°
2026-04-24 16:47 21.15900 59.76357 33858 ft 507 kts 280°
2026-04-24 16:47 21.17216 59.68933 33858 ft 507 kts 280°
2026-04-24 16:48 21.18544 59.61449 33858 ft 507 kts 280°
2026-04-24 16:48 21.19877 59.53941 33858 ft 507 kts 280°
2026-04-24 16:49 21.21205 59.46478 33857 ft 507 kts 280°
2026-04-24 16:49 21.22531 59.39033 33857 ft 507 kts 280°
2026-04-24 16:50 21.23870 59.31515 33864 ft 508 kts 280°
2026-04-24 16:50 21.25200 59.24048 33860 ft 508 kts 280°
2026-04-24 16:51 21.26531 59.16576 33858 ft 508 kts 280°
2026-04-24 16:51 21.27868 59.09075 33857 ft 508 kts 280°
2026-04-24 16:52 21.29202 59.01595 33858 ft 508 kts 280°
2026-04-24 16:52 21.30548 58.94114 33857 ft 508 kts 280°
2026-04-24 16:53 21.31900 58.86652 33857 ft 509 kts 280°
2026-04-24 16:53 21.33263 58.79189 33857 ft 509 kts 280°
2026-04-24 16:54 21.34632 58.71711 33859 ft 509 kts 280°
2026-04-24 16:54 21.36003 58.64223 33858 ft 509 kts 280°
2026-04-24 16:55 21.38232 58.57006 33836 ft 508 kts 294°
2026-04-24 16:55 21.41108 58.50062 33870 ft 507 kts 290°
2026-04-24 16:56 21.43313 58.42880 33853 ft 504 kts 283°
2026-04-24 16:56 21.44583 58.35509 33856 ft 503 kts 278°
2026-04-24 16:57 21.45860 58.28080 33862 ft 503 kts 280°
2026-04-24 16:57 21.47274 58.20729 33860 ft 503 kts 281°
2026-04-24 16:58 21.48768 58.13326 33859 ft 504 kts 281°
2026-04-24 16:58 21.50293 58.05946 33857 ft 504 kts 281°
2026-04-24 16:59 21.51831 57.98591 33866 ft 509 kts 282°
2026-04-24 17:00 21.54203 57.87353 33863 ft 509 kts 282°
2026-04-24 17:00 21.56570 57.76190 33857 ft 510 kts 282°
2026-04-24 17:01 21.59065 57.65015 33847 ft 510 kts 286°
2026-04-24 17:02 21.62126 57.54024 33860 ft 511 kts 285°
2026-04-24 17:02 21.64160 57.46654 33858 ft 511 kts 285°
2026-04-24 17:03 21.67199 57.35654 33857 ft 510 kts 285°
2026-04-24 17:04 21.69223 57.28323 33859 ft 510 kts 285°
2026-04-24 17:04 21.72252 57.17329 33858 ft 510 kts 285°
2026-04-24 17:05 21.74265 57.10003 33858 ft 510 kts 285°
2026-04-24 17:06 21.77295 56.98959 33858 ft 510 kts 285°
2026-04-24 17:06 21.80306 56.87949 33857 ft 512 kts 284°
2026-04-24 17:07 21.82320 56.80567 33858 ft 512 kts 284°
2026-04-24 17:08 21.86337 56.65810 33857 ft 513 kts 284°
2026-04-24 17:08 21.88356 56.58375 33861 ft 513 kts 284°
2026-04-24 17:09 21.92346 56.43646 33887 ft 512 kts 284°
2026-04-24 17:10 21.96338 56.28840 33912 ft 512 kts 284°
2026-04-24 17:12 22.04276 55.99234 33912 ft 513 kts 284°
2026-04-24 18:54 24.01124 41.05299 26768 ft 431 kts 283°
2026-04-24 18:55 24.02900 40.98986 25885 ft 429 kts 283°
2026-04-24 18:55 24.03782 40.95841 25444 ft 426 kts 283°
2026-04-24 18:55 24.04655 40.92729 25007 ft 425 kts 283°
2026-04-24 18:56 24.05532 40.89608 24569 ft 423 kts 283°
2026-04-24 18:56 24.06390 40.86547 24138 ft 420 kts 284°
2026-04-24 18:56 24.07254 40.83457 23702 ft 418 kts 284°
2026-04-24 18:56 24.08116 40.80378 23267 ft 415 kts 284°
2026-04-24 18:57 24.08957 40.77370 22838 ft 414 kts 284°
2026-04-24 18:57 24.09810 40.74317 22403 ft 413 kts 284°
2026-04-24 18:57 24.10641 40.71340 21973 ft 412 kts 284°
2026-04-24 18:57 24.11487 40.68309 21529 ft 410 kts 284°
2026-04-24 18:58 24.12324 40.65310 21088 ft 409 kts 284°
2026-04-24 18:58 24.13152 40.62333 20647 ft 407 kts 284°
2026-04-24 18:58 24.13981 40.59352 20202 ft 405 kts 284°
2026-04-24 18:58 24.14805 40.56388 19756 ft 404 kts 284°
2026-04-24 18:59 24.15625 40.53434 19310 ft 402 kts 284°
2026-04-24 18:59 24.16223 40.50479 18831 ft 396 kts 277°
2026-04-24 18:59 24.16930 40.47562 18337 ft 400 kts 289°
2026-04-24 18:59 24.18232 40.44824 17860 ft 401 kts 297°
2026-04-24 19:00 24.19588 40.42146 17415 ft 398 kts 296°
2026-04-24 19:00 24.20868 40.39490 17078 ft 394 kts 296°
2026-04-24 19:00 24.22150 40.36821 16897 ft 385 kts 295°
2026-04-24 19:00 24.23342 40.34284 16798 ft 371 kts 294°
2026-04-24 19:01 24.24505 40.31782 16783 ft 360 kts 294°
2026-04-24 19:01 24.25642 40.29321 16794 ft 352 kts 294°
2026-04-24 19:01 24.26734 40.26938 16829 ft 351 kts 294°
2026-04-24 19:01 24.27834 40.24526 16888 ft 356 kts 294°
2026-04-24 19:02 24.28590 40.22864 16927 ft 358 kts 294°
2026-04-24 19:02 24.30068 40.19599 16967 ft 359 kts 294°
2026-04-24 19:02 24.31184 40.17129 16953 ft 358 kts 294°
2026-04-24 19:02 24.32311 40.14631 16760 ft 362 kts 294°
2026-04-24 19:03 24.33438 40.12132 16445 ft 364 kts 294°
2026-04-24 19:03 24.34549 40.09665 16059 ft 358 kts 294°
2026-04-24 19:03 24.35652 40.07207 15638 ft 353 kts 294°
2026-04-24 19:03 24.36739 40.04779 15249 ft 352 kts 294°
2026-04-24 19:04 24.37807 40.02392 14982 ft 347 kts 294°
2026-04-24 19:04 24.38866 40.00029 14756 ft 343 kts 294°
2026-04-24 19:04 24.39917 39.97676 14389 ft 338 kts 294°
2026-04-24 19:04 24.40931 39.95404 13897 ft 330 kts 294°
2026-04-24 19:05 24.41948 39.93124 13414 ft 327 kts 295°
2026-04-24 19:05 24.42940 39.90902 13053 ft 319 kts 295°
2026-04-24 19:05 24.43911 39.88727 12852 ft 312 kts 295°
2026-04-24 19:05 24.44918 39.86643 12755 ft 305 kts 303°
2026-04-24 19:06 24.46373 39.84963 12744 ft 307 kts 323°
2026-04-24 19:06 24.48315 39.83850 12650 ft 319 kts 341°
2026-04-24 19:06 24.50534 39.83224 12296 ft 330 kts 347°
2026-04-24 19:06 24.52770 39.82661 11829 ft 331 kts 347°
2026-04-24 19:07 24.55037 39.82119 11298 ft 328 kts 348°
2026-04-24 19:07 24.57231 39.81627 10781 ft 327 kts 348°
2026-04-24 19:07 24.58702 39.81300 10387 ft 319 kts 348°
2026-04-24 19:07 24.61514 39.80690 9575 ft 296 kts 348°
2026-04-24 19:08 24.63505 39.80261 9281 ft 286 kts 348°
2026-04-24 19:08 24.65445 39.79845 9131 ft 279 kts 348°
2026-04-24 19:08 24.67177 39.79475 9055 ft 274 kts 349°
2026-04-24 19:08 24.69029 39.79080 9018 ft 270 kts 348°
2026-04-24 19:09 24.70920 39.78677 9016 ft 274 kts 348°
2026-04-24 19:09 24.72814 39.78272 9037 ft 278 kts 349°
2026-04-24 19:09 24.74719 39.77867 9044 ft 275 kts 349°
2026-04-24 19:09 24.76567 39.77475 8885 ft 265 kts 349°
2026-04-24 19:10 24.78348 39.77096 8600 ft 256 kts 348°
2026-04-24 19:10 24.80063 39.76731 8471 ft 241 kts 348°
2026-04-24 19:10 24.81718 39.76379 8202 ft 242 kts 348°
2026-04-24 19:10 24.83360 39.76030 8098 ft 239 kts 348°
2026-04-24 19:11 24.84969 39.75687 8008 ft 228 kts 348°
2026-04-24 19:11 24.86494 39.75363 7978 ft 215 kts 348°
2026-04-24 19:11 24.87937 39.75057 8094 ft 210 kts 348°
2026-04-24 19:11 24.89440 39.74732 8139 ft 226 kts 348°
2026-04-24 19:12 24.90914 39.74089 8055 ft 230 kts 327°
2026-04-24 19:12 24.91997 39.72839 7955 ft 223 kts 300°
2026-04-24 19:12 24.92464 39.71229 7826 ft 218 kts 274°
2026-04-24 19:12 24.92233 39.69583 7698 ft 216 kts 248°
2026-04-24 19:13 24.91718 39.68646 7617 ft 214 kts 230°
2026-04-24 19:13 24.90043 39.67511 7455 ft 212 kts 194°
2026-04-24 19:13 24.88595 39.67205 7398 ft 211 kts 193°
2026-04-24 19:13 24.87167 39.66819 7351 ft 209 kts 192°
2026-04-24 19:14 24.85738 39.66480 7274 ft 209 kts 192°
2026-04-24 19:14 24.84308 39.66130 7218 ft 209 kts 192°
2026-04-24 19:14 24.82894 39.65798 7130 ft 203 kts 192°
2026-04-24 19:14 24.81501 39.65507 6979 ft 201 kts 185°
2026-04-24 19:15 24.80106 39.65683 6804 ft 201 kts 169°
2026-04-24 19:15 24.78734 39.65960 6665 ft 200 kts 171°
2026-04-24 19:15 24.77358 39.66227 6525 ft 200 kts 169°
2026-04-24 19:15 24.75969 39.66514 6386 ft 200 kts 171°
2026-04-24 19:16 24.73230 39.67042 6114 ft 196 kts 169°
2026-04-24 19:16 24.71922 39.67309 5903 ft 185 kts 170°
2026-04-24 19:16 24.70690 39.67565 5597 ft 177 kts 169°
2026-04-24 19:17 24.69490 39.67823 5291 ft 174 kts 170°
2026-04-24 19:17 24.68289 39.68077 4931 ft 177 kts 170°
2026-04-24 19:17 24.67091 39.68329 4584 ft 174 kts 170°
2026-04-24 19:17 24.65895 39.68583 4218 ft 170 kts 170°
2026-04-24 19:18 24.64756 39.68822 3969 ft 164 kts 170°
2026-04-24 19:18 24.63646 39.69057 3842 ft 160 kts 170°
2026-04-24 19:18 24.62517 39.69300 3644 ft 169 kts 169°
2026-04-24 19:18 24.61344 39.69557 3271 ft 170 kts 170°
2026-04-24 19:19 24.60216 39.69782 2697 ft 162 kts 171°
2026-04-24 19:19 24.59156 39.70000 2328 ft 145 kts 169°
2026-04-24 19:19 24.58166 39.70218 2171 ft 140 kts 169°
2026-04-24 19:19 24.57283 39.70405 2157 ft 116 kts 168°
2026-04-24 19:20 24.56609 39.70604 2157 ft 70 kts 140°
2026-04-24 19:20 24.56529 39.70712 2157 ft 0 kts 90°